Stündliche Wetter Abubakirovo

Heute, 21 Juni, Montag

Zeit Temperatur Niederschläge Wind Luftdruck Luftfeuchtigkeit
00:00 +18°C° 0 mm 3 m/S 732 mmHg 68%
01:00 +16°C° 0 mm 3 m/S 732 mmHg 63%
02:00 +14°C° 0 mm 3 m/S 732 mmHg 65%
03:00 +14°C° 0 mm 3 m/S 733 mmHg 66%
04:00 +14°C° 0 mm 2 m/S 733 mmHg 67%
05:00 +15°C° 0 mm 2 m/S 734 mmHg 61%
06:00 +17°C° 0 mm 2 m/S 734 mmHg 55%
07:00 +18°C° 0 mm 3 m/S 734 mmHg 49%
08:00 +20°C° 0 mm 3 m/S 735 mmHg 44%
09:00 +21°C° 0 mm 3 m/S 735 mmHg 39%
10:00 +22°C° 0 mm 3 m/S 735 mmHg 34%
11:00 +24°C° 0 mm 3 m/S 735 mmHg 33%
12:00 +25°C° 0 mm 4 m/S 735 mmHg 32%
13:00 +26°C° 0 mm 4 m/S 735 mmHg 31%
14:00 +27°C° 0 mm 4 m/S 735 mmHg 31%
15:00 +27°C° 0 mm 4 m/S 735 mmHg 31%
16:00 +28°C° 0 mm 4 m/S 735 mmHg 30%
17:00 +26°C° 0 mm 3 m/S 735 mmHg 36%
18:00 +25°C° 0 mm 3 m/S 735 mmHg 41%
19:00 +24°C° 0 mm 2 m/S 734 mmHg 46%
20:00 +21°C° 0 mm 2 m/S 735 mmHg 48%
21:00 +20°C° 0 mm 1 m/S 735 mmHg 50%
22:00 +18°C° 0 mm 1 m/S 735 mmHg 52%
23:00 +18°C° 0 mm 1 m/S 735 mmHg 53%

Morgen, 22 Juni, Dienstag

Zeit Temperatur Niederschläge Wind Luftdruck Luftfeuchtigkeit
00:00 +16°C° 0 mm 1 m/S 735 mmHg 54%
01:00 +16°C° 0 mm 1 m/S 735 mmHg 55%
02:00 +16°C° 0 mm 1 m/S 735 mmHg 57%
03:00 +15°C° 0 mm 1 m/S 735 mmHg 58%
04:00 +15°C° 0 mm 1 m/S 735 mmHg 60%
05:00 +18°C° 0 mm 1 m/S 735 mmHg 58%
06:00 +19°C° 0 mm 2 m/S 735 mmHg 55%
07:00 +21°C° 0 mm 2 m/S 735 mmHg 53%
08:00 +24°C° 0 mm 2 m/S 735 mmHg 51%
09:00 +26°C° 0 mm 3 m/S 735 mmHg 50%
10:00 +28°C° 0 mm 3 m/S 735 mmHg 48%
11:00 +29°C° 0 mm 3 m/S 735 mmHg 44%
12:00 +29°C° 0 mm 4 m/S 735 mmHg 40%
13:00 +30°C° 0 mm 4 m/S 735 mmHg 37%
14:00 +30°C° 0 mm 3 m/S 735 mmHg 41%
15:00 +29°C° 0 mm 3 m/S 734 mmHg 45%
16:00 +28°C° 0 mm 3 m/S 734 mmHg 49%
17:00 +28°C° 0 mm 3 m/S 734 mmHg 51%
18:00 +27°C° 0 mm 3 m/S 734 mmHg 53%
19:00 +27°C° 0 mm 3 m/S 734 mmHg 55%
20:00 +26°C° 0 mm 3 m/S 734 mmHg 60%
21:00 +24°C° 0 mm 3 m/S 734 mmHg 65%
22:00 +22°C° 0 mm 3 m/S 734 mmHg 70%
23:00 +21°C° 0 mm 3 m/S 734 mmHg 70%

übermorgen, 23 Juni, Mittwoch

Zeit Temperatur Niederschläge Wind Luftdruck Luftfeuchtigkeit
00:00 +20°C° 0 mm 3 m/S 733 mmHg 71%
01:00 +20°C° 0 mm 3 m/S 733 mmHg 71%
02:00 +19°C° 0 mm 3 m/S 733 mmHg 74%
03:00 +19°C° 0 mm 3 m/S 733 mmHg 76%
04:00 +19°C° 0 mm 3 m/S 733 mmHg 79%
05:00 +21°C° 0 mm 4 m/S 733 mmHg 73%
06:00 +23°C° 0 mm 4 m/S 733 mmHg 68%
07:00 +26°C° 0 mm 4 m/S 733 mmHg 63%
08:00 +27°C° 0 mm 5 m/S 733 mmHg 56%
09:00 +29°C° 0 mm 5 m/S 733 mmHg 49%
10:00 +30°C° 0 mm 6 m/S 733 mmHg 42%
11:00 +32°C° 0 mm 6 m/S 733 mmHg 40%
12:00 +32°C° 0 mm 6 m/S 732 mmHg 39%
13:00 +32°C° 0 mm 6 m/S 732 mmHg 37%
14:00 +32°C° 0 mm 6 m/S 732 mmHg 37%
15:00 +32°C° 0 mm 6 m/S 732 mmHg 38%
16:00 +32°C° 0 mm 6 m/S 732 mmHg 38%
17:00 +28°C° 0.3 mm 6 m/S 732 mmHg 53%
18:00 +25°C° 0.3 mm 5 m/S 732 mmHg 69%
19:00 +21°C° 0.3 mm 4 m/S 732 mmHg 84%
20:00 +20°C° 0.3 mm 4 m/S 732 mmHg 88%
21:00 +19°C° 0.3 mm 3 m/S 733 mmHg 91%
22:00 +18°C° 0.3 mm 2 m/S 733 mmHg 94%
23:00 +17°C° 0 mm 3 m/S 733 mmHg 93%

24 Juni, Donnerstag

Zeit Temperatur Niederschläge Wind Luftdruck Luftfeuchtigkeit
00:00 +16°C° 0 mm 3 m/S 733 mmHg 93%
01:00 +16°C° 0 mm 3 m/S 733 mmHg 92%
02:00 +16°C° 0 mm 3 m/S 733 mmHg 90%
03:00 +16°C° 0 mm 3 m/S 733 mmHg 88%
04:00 +15°C° 0 mm 2 m/S 733 mmHg 86%
05:00 +16°C° 0 mm 2 m/S 733 mmHg 81%
06:00 +17°C° 0 mm 2 m/S 733 mmHg 75%
07:00 +18°C° 0 mm 2 m/S 734 mmHg 69%
08:00 +18°C° 0 mm 2 m/S 734 mmHg 65%
09:00 +19°C° 0 mm 2 m/S 734 mmHg 61%
10:00 +20°C° 0 mm 2 m/S 734 mmHg 57%
11:00 +21°C° 0 mm 2 m/S 734 mmHg 56%
12:00 +21°C° 0 mm 2 m/S 734 mmHg 54%
13:00 +23°C° 0 mm 1 m/S 733 mmHg 53%
14:00 +24°C° 0 mm 1 m/S 733 mmHg 52%
15:00 +25°C° 0 mm 1 m/S 733 mmHg 51%
16:00 +26°C° 0 mm 1 m/S 733 mmHg 50%
17:00 +26°C° 0 mm 1 m/S 732 mmHg 53%
18:00 +26°C° 0 mm 1 m/S 732 mmHg 56%
19:00 +25°C° 0 mm 1 m/S 732 mmHg 60%
20:00 +24°C° 0 mm 2 m/S 732 mmHg 62%
21:00 +23°C° 0 mm 2 m/S 731 mmHg 64%
22:00 +21°C° 0 mm 2 m/S 731 mmHg 66%
23:00 +20°C° 0 mm 2 m/S 731 mmHg 68%

25 Juni, Freitag

Zeit Temperatur Niederschläge Wind Luftdruck Luftfeuchtigkeit
00:00 +20°C° 0 mm 2 m/S 731 mmHg 69%
01:00 +19°C° 0 mm 2 m/S 731 mmHg 70%
02:00 +19°C° 0 mm 2 m/S 731 mmHg 72%
03:00 +19°C° 0 mm 2 m/S 730 mmHg 75%
04:00 +18°C° 0 mm 2 m/S 730 mmHg 77%
05:00 +20°C° 0 mm 3 m/S 730 mmHg 75%
06:00 +21°C° 0 mm 3 m/S 730 mmHg 73%
07:00 +23°C° 0 mm 4 m/S 730 mmHg 71%
08:00 +25°C° 0 mm 4 m/S 730 mmHg 65%
09:00 +27°C° 0 mm 4 m/S 729 mmHg 58%
10:00 +29°C° 0 mm 4 m/S 729 mmHg 52%
11:00 +30°C° 0 mm 5 m/S 729 mmHg 48%
12:00 +32°C° 0 mm 5 m/S 729 mmHg 43%
13:00 +33°C° 0 mm 5 m/S 728 mmHg 39%
14:00 +32°C° 0 mm 5 m/S 728 mmHg 41%
15:00 +32°C° 0 mm 4 m/S 728 mmHg 43%
16:00 +30°C° 0 mm 4 m/S 728 mmHg 45%
17:00 +29°C° 0 mm 4 m/S 727 mmHg 50%
18:00 +28°C° 0 mm 3 m/S 727 mmHg 54%
19:00 +27°C° 0 mm 3 m/S 727 mmHg 59%
20:00 +25°C° 0.5 mm 2 m/S 727 mmHg 68%
21:00 +23°C° 0.5 mm 2 m/S 727 mmHg 77%
22:00 +21°C° 0.5 mm 2 m/S 727 mmHg 85%
23:00 +20°C° 0.4 mm 2 m/S 727 mmHg 86%

26 Juni, Samstag

Zeit Temperatur Niederschläge Wind Luftdruck Luftfeuchtigkeit
00:00 +20°C° 0.4 mm 2 m/S 726 mmHg 86%
01:00 +21°C° 0.4 mm 1 m/S 726 mmHg 87%
02:00 +20°C° 0 mm 2 m/S 726 mmHg 87%
03:00 +19°C° 0 mm 2 m/S 726 mmHg 87%
04:00 +19°C° 0 mm 2 m/S 725 mmHg 88%
05:00 +21°C° 0 mm 2 m/S 726 mmHg 83%
06:00 +23°C° 0 mm 2 m/S 726 mmHg 78%
07:00 +25°C° 0 mm 3 m/S 726 mmHg 73%
08:00 +26°C° 0 mm 2 m/S 726 mmHg 66%
09:00 +28°C° 0 mm 2 m/S 726 mmHg 58%
10:00 +30°C° 0 mm 2 m/S 725 mmHg 51%
11:00 +30°C° 0 mm 1 m/S 725 mmHg 48%
12:00 +31°C° 0 mm 1 m/S 725 mmHg 45%
13:00 +31°C° 0 mm 1 m/S 725 mmHg 42%
14:00 +31°C° 0 mm 1 m/S 725 mmHg 45%
15:00 +31°C° 0 mm 1 m/S 725 mmHg 47%
16:00 +30°C° 0 mm 1 m/S 725 mmHg 50%
17:00 +30°C° 0 mm 1 m/S 725 mmHg 51%
18:00 +30°C° 0 mm 1 m/S 725 mmHg 53%
19:00 +29°C° 0 mm 1 m/S 725 mmHg 55%
20:00 +27°C° 0.1 mm 1 m/S 725 mmHg 61%
21:00 +26°C° 0.1 mm 2 m/S 725 mmHg 68%
22:00 +24°C° 0.1 mm 2 m/S 725 mmHg 74%
23:00 +23°C° 0.4 mm 2 m/S 725 mmHg 78%
Mehr zeigen

Wir brauchen deine Erlaubnis

Meteoprog und unser Service Anbieter werden persönliche Daten aufbewahren, so wie Cookies, Geräte Bezeichnung oder ähnliche Technologien von deinem Gerät und Prozess, so wie Persönliche Daten Inhalte und Werbungen, genauso wie social Media und den Verkehr zu analysieren.

  • Aufbewahrung und/oder Zugang zu deiner Geräte Informationen.

    Cookies, Geräte Bezeichnung oder andere Informationen, können aufbewahrt oder Zugang zu deinem Gerät erhalten, für den Grund, der oben angegeben wird.

  • Personalisierte Werbung und Inhalte, Messungen, Einblick in das Publikum und Produkt Entwicklung.

    Werbungen und Inhalte können personalisiert werden, basierend auf ein Profil. Mehr Daten können besser personalisierte Werbungen und Inhalte hinzufügen. Werbung und Inhalte können gezeigt und gemessen werden. Einblicke über das Publikum, welche die Werbung gesehen haben und den Inhalt, können abgeleitet werden. So wie Daten können genutzt werden, um es zu verbessern oder die Benutzer Erfahrung zu verbessern das System und die Software.

Wenn du “Ich stimme zu” klickst, erlaubst du uns, die Cookies zu benutzen die Geräte Bezeichnung, den Web oder ähnliche Technologien zu benutzen. Deine Settings, können in deinem Gerät bei deinem Browser geändert werden.

Für den bestimmten Zweck, berechtigten Interessen beruhen darauf, mehr als auf den Inhalt. Du kannst mehr darüber in unseren Privaten und Cookie Politik lesen.